DW8424 Weather Reports


time (UTC)temp
C
wind
direction
speed
KPH
gust
KPH
rain 1hr
cm
rain 24hr
cm
rain mn
cm
humidity
%
barometer
mb
20260506173051 8 136 1.6 8.0 0.00 0.00 0.00 71 1016.0
20260506171551 9 84 1.6 8.0 0.00 0.00 0.00 70 1016.0
20260506170100 8 125 4.8 12.9 0.00 0.00 0.00 70 1016.1
20260506164546 8 94 4.8 9.7 0.00 0.00 0.00 68 1016.2
20260506163105 8 79 3.2 9.7 0.00 0.00 0.00 67 1016.2
20260506161545 9 89 3.2 12.9 0.00 0.00 0.00 68 1016.2
20260506160044 10 91 3.2 14.5 0.00 0.00 0.00 69 1016.1
20260506154604 9 113 4.8 9.7 0.00 0.00 0.00 69 1016.1
20260506153050 8 117 4.8 11.3 0.00 0.00 0.00 69 1016.2
20260506151546 8 107 3.2 11.3 0.00 0.00 0.00 70 1016.3
20260506150041 10 79 6.4 12.9 0.00 0.00 0.00 66 1016.3
20260506144539 10 122 4.8 12.9 0.00 0.00 0.00 67 1016.3
20260506143048 10 110 3.2 11.3 0.00 0.00 0.00 66 1016.2
20260506141541 10 101 4.8 12.9 0.00 0.00 0.00 64 1016.3
20260506140037 10 94 6.4 12.9 0.00 0.00 0.00 64 1016.3
20260506134536 10 43 6.4 14.5 0.00 0.00 0.00 66 1016.3
20260506133036 11 82 6.4 11.3 0.00 0.00 0.00 63 1016.3
20260506131536 10 8 4.8 12.9 0.00 0.00 0.00 65 1016.3
20260506130035 11 235 3.2 12.9 0.00 0.00 0.00 63 1016.2
20260506124534 11 41 3.2 14.5 0.00 0.03 0.00 63 1016.3
20260506123036 11 50 4.8 16.1 0.00 0.03 0.00 62 1016.3
20260506121539 11 131 3.2 14.5 0.00 0.03 0.00 64 1016.3
20260506120029 10 81 4.8 12.9 0.00 0.03 0.00 66 1016.3
20260506114533 10 156 6.4 16.1 0.00 0.03 0.00 65 1016.4
20260506113027 10 36 4.8 12.9 0.00 0.03 0.00 66 1016.3
20260506111535 10 5 6.4 14.5 0.00 0.03 0.00 64 1016.4
20260506110029 10 110 4.8 12.9 0.00 0.03 0.00 65 1016.2
20260506104524 10 88 4.8 12.9 0.00 0.03 0.00 67 1016.4
20260506103022 9 53 4.8 12.9 0.00 0.03 0.00 65 1016.3
20260506101521 9 100 3.2 14.5 0.00 0.03 0.00 66 1016.3
20260506100019 8 140 4.8 19.3 0.00 0.03 0.00 69 1016.2
20260506094518 8 72 3.2 17.7 0.00 0.03 0.00 69 1016.4
20260506093017 8 113 3.2 16.1 0.00 0.03 0.00 72 1016.4
20260506091516 8 14 3.2 14.5 0.00 0.03 0.00 72 1016.2
20260506090015 8 103 4.8 16.1 0.00 0.03 0.00 71 1016.3
20260506084514 8 181 6.4 16.1 0.00 0.03 0.00 72 1016.2
20260506083013 8 89 4.8 11.3 0.00 0.03 0.00 72 1016.1
20260506081510 8 11 4.8 12.9 0.00 0.03 0.00 76 1016.1
20260506073009 7 44 3.2 12.9 0.00 0.03 0.00 81 1015.8
20260506071508 6 15 4.8 12.9 0.00 0.03 0.00 81 1015.7
20260506061513 8 100 4.8 14.5 0.00 0.03 0.00 76 1015.2
20260506044551 6 307 4.8 12.9 0.00 0.03 0.00 81 1015.0
20260506043045 6 193 4.8 16.1 0.00 0.03 0.00 82 1015.2
20260506041548 6 347 4.8 14.5 0.00 0.03 0.00 83 1015.1
20260506040057 6 147 1.6 12.9 0.00 0.03 0.00 84 1015.2
20260506034548 6 203 6.4 12.9 0.00 0.03 0.00 85 1015.2
20260506033042 6 25 1.6 8.0 0.00 0.03 0.00 84 1015.2
20260506031553 6 111 1.6 11.3 0.00 0.03 0.00 84 1015.2
20260506030039 5 121 3.2 11.3 0.00 0.03 0.00 84 1015.3
20260506024538 5 6 4.8 14.5 0.00 0.03 0.00 85 1015.2
20260506023036 6 321 4.8 12.9 0.00 0.03 0.00 85 1015.2
20260506021534 6 127 1.6 6.4 0.00 0.03 0.00 85 1015.2
20260506020032 6 354 1.6 11.3 0.00 0.03 0.00 84 1015.3
20260506014532 6 200 3.2 14.5 0.00 0.03 0.00 84 1015.4
20260506013028 6 309 4.8 12.9 0.00 0.03 0.00 85 1015.5
20260506011529 6 71 6.4 17.7 0.00 0.03 0.00 84 1015.5
20260506010026 6 314 4.8 16.1 0.00 0.03 0.00 83 1015.5
20260506004527 6 360 8.0 17.7 0.00 0.03 0.00 83 1015.5
20260506003021 6 6 6.4 14.5 0.00 0.03 0.00 86 1015.6
20260506001518 6 36 3.2 11.3 0.00 0.03 0.00 85 1015.7
20260506000018 6 1 1.6 8.0 0.00 0.03 0.00 85 1015.7
20260505234514 6 3 4.8 11.3 0.00 0.03 0.00 85 1015.8
20260505233010 6 39 6.4 12.9 0.00 0.03 0.00 85 1016.0
20260505231508 6 349 3.2 16.1 0.00 0.03 0.00 86 1016.1
20260505230004 6 1 3.2 16.1 0.00 0.03 0.00 85 1016.1
20260505224502 6 334 3.2 11.3 0.00 0.03 0.03 86 1016.1
20260505223002 6 334 4.8 16.1 0.00 0.03 0.03 86 1016.0
20260505221603 6 73 6.4 17.7 0.00 0.03 0.03 86 1016.2
20260505220058 6 320 4.8 12.9 0.00 0.03 0.03 85 1016.1
20260505214600 6 352 6.4 20.9 0.00 0.03 0.03 86 1016.2
20260505213059 6 141 4.8 14.5 0.00 0.03 0.03 85 1016.0
20260505211610 6 88 4.8 20.9 0.00 0.03 0.03 86 1016.2
20260505204600 6 335 6.4 19.3 0.00 0.03 0.03 85 1016.2
20260505203055 7 338 4.8 16.1 0.00 0.03 0.03 86 1016.2
20260505201557 6 82 6.4 22.5 0.00 0.03 0.03 85 1016.2
20260505200050 6 319 8.0 20.9 0.00 0.03 0.03 85 1016.1
20260505194605 7 79 4.8 16.1 0.00 0.03 0.03 85 1016.1
20260505193045 7 53 6.4 16.1 0.00 0.03 0.03 85 1015.9
20260505191544 7 29 8.0 22.5 0.00 0.03 0.03 84 1016.0
20260505190045 7 44 9.7 17.7 0.00 0.03 0.03 84 1016.0
20260505184540 7 291 8.0 14.5 0.00 0.03 0.03 84 1016.0
20260505183041 7 211 8.0 20.9 0.00 0.03 0.03 83 1015.9
20260505181542 8 129 4.8 20.9 0.00 0.03 0.03 81 1015.7
20260505180039 8 360 4.8 17.7 0.00 0.03 0.03 82 1015.7
20260505174540 8 18 9.7 24.1 0.00 0.03 0.03 83 1015.8